AF5LA Weather Reports


Display with metric or nautical units.
time (UTC)temp
F
wind
direction
speed
MPH
gust
MPH
rain 1hr
in
rain 24hr
in
rain mn
in
humidity
%
barometer
mb
20240224115036 0 0.0 0.0 0.00 0.00 0.00 1022.5
20240224114536 0 0.0 0.0 0.00 0.00 0.00 1022.4
20240224114033 0 0.0 0.0 0.00 0.00 0.00 1022.4
20240224113531 0 0.0 0.0 0.00 0.00 0.00 1022.2
20240224113036 0 0.0 0.0 0.00 0.00 0.00 1022.1
20240224112528 0 0.0 0.0 0.00 0.00 0.00 1022.1
20240224112026 0 0.0 0.0 0.00 0.00 0.00 1022.1
20240224111526 0 0.0 0.0 0.00 0.00 0.00 1021.9
20240224111024 0 0.0 0.0 0.00 0.00 0.00 1022.0
20240224110522 0 0.0 0.0 0.00 0.00 0.00 1022.0
20240224110024 0 0.0 0.0 0.00 0.00 0.00 1021.9
20240224105519 0 0.0 0.0 0.00 0.00 0.00 1021.9
20240224105018 0 0.0 0.0 0.00 0.00 0.00 1021.9
20240224104516 0 0.0 0.0 0.00 0.00 0.00 1021.9
20240224104015 0 0.0 0.0 0.00 0.00 0.00 1021.9
20240224103514 0 0.0 0.0 0.00 0.00 0.00 1021.8
20240224103012 0 0.0 0.0 0.00 0.00 0.00 1021.9
20240224102511 0 0.0 0.0 0.00 0.00 0.00 1021.8
20240224102009 0 0.0 0.0 0.00 0.00 0.00 1021.8
20240224101507 0 0.0 0.0 0.00 0.00 0.00 1021.8
20240224101006 0 0.0 0.0 0.00 0.00 0.00 1021.8
20240224100504 0 0.0 0.0 0.00 0.00 0.00 1021.9
20240224100003 0 0.0 0.0 0.00 0.00 0.00 1021.9
20240224095502 0 0.0 0.0 0.00 0.00 0.00 1022.0
20240224095100 51 293 0.0 0.0 0.00 0.00 0.00 67 1022.1
20240224095001 51 293 0.0 0.0 0.00 0.00 0.00 67 1022.2
20240224094601 51 293 0.0 0.0 0.00 0.00 0.00 67 1022.2
20240224094103 51 295 0.0 0.0 0.00 0.00 0.00 67 1022.2
20240224093601 51 294 0.0 0.0 0.00 0.00 0.00 67 1022.3
20240224093101 51 294 0.0 0.0 0.00 0.00 0.00 66 1022.3
20240224092559 51 294 0.0 0.0 0.00 0.00 0.00 66 1022.4
20240224092104 51 294 0.0 0.0 0.00 0.00 0.00 67 1022.5
20240224091559 51 294 0.0 0.0 0.00 0.00 0.00 67 1022.4
20240224091057 51 294 0.0 0.0 0.00 0.00 0.00 67 1022.4
20240224090557 51 294 0.0 0.0 0.00 0.00 0.00 67 1022.4
20240224090058 51 294 0.0 0.0 0.00 0.00 0.00 66 1022.5
20240224085556 51 294 0.0 0.0 0.00 0.00 0.00 66 1022.5
20240224085057 51 294 0.0 0.0 0.00 0.00 0.00 67 1022.4
20240224084556 51 294 0.0 0.0 0.00 0.00 0.00 66 1022.5
20240224084056 51 294 0.0 0.0 0.00 0.00 0.00 66 1022.5
20240224083556 51 294 0.0 0.0 0.00 0.00 0.00 65 1022.5
20240224083056 52 294 0.0 0.0 0.00 0.00 0.00 65 1022.5
20240224082554 52 294 0.0 0.0 0.00 0.00 0.00 64 1022.4
20240224082056 52 294 0.0 0.0 0.00 0.00 0.00 64 1022.4
20240224081554 52 294 0.0 0.0 0.00 0.00 0.00 65 1022.3
20240224081052 52 294 0.0 0.0 0.00 0.00 0.00 65 1022.3
20240224080553 53 294 0.0 0.0 0.00 0.00 0.00 64 1022.2
20240224080128 53 294 0.0 0.0 0.00 0.00 0.00 65 1022.1
20240224075548 53 294 0.0 0.0 0.00 0.00 0.00 64 1022.0
20240224075050 53 294 0.0 0.0 0.00 0.00 0.00 64 1021.8
20240224074546 53 294 0.0 0.0 0.00 0.00 0.00 64 1021.8
20240224074044 53 294 0.0 0.0 0.00 0.00 0.00 63 1021.7
20240224073543 54 294 0.0 0.0 0.00 0.00 0.00 62 1021.6
20240224073043 54 294 0.0 0.0 0.00 0.00 0.00 62 1021.5
20240224072543 55 294 0.0 1.0 0.00 0.00 0.00 61 1021.4
20240224072039 55 294 0.0 1.0 0.00 0.00 0.00 61 1021.4
20240224071539 56 294 0.0 0.0 0.00 0.00 0.00 58 1021.5
20240224071036 56 294 0.0 0.0 0.00 0.00 0.00 57 1021.6
20240224070536 57 294 0.0 0.0 0.00 0.00 0.00 57 1021.6
20240224070035 57 294 0.0 0.0 0.00 0.00 0.00 57 1021.7
20240224065535 57 294 0.0 1.0 0.00 0.00 0.00 57 1021.7
20240224065035 57 294 0.0 1.0 0.00 0.00 0.00 58 1021.7
20240224064535 57 294 0.0 0.0 0.00 0.00 0.00 58 1021.6
20240224064034 57 294 0.0 0.0 0.00 0.00 0.00 58 1021.5
20240224063533 57 294 0.0 0.0 0.00 0.00 0.00 55 1021.5
20240224063034 57 294 0.0 1.0 0.00 0.00 0.00 57 1021.4
20240224062529 56 294 0.0 1.0 0.00 0.00 0.00 59 1021.4
20240224062029 56 294 0.0 0.0 0.00 0.00 0.00 59 1021.4
20240224061527 56 294 0.0 0.0 0.00 0.00 0.00 58 1021.5
20240224061027 55 294 0.0 0.0 0.00 0.00 0.00 60 1021.7
20240224060526 55 294 0.0 0.0 0.00 0.00 0.00 59 1021.6
20240224060024 56 294 0.0 0.0 0.00 0.00 0.00 61 1021.7
20240224055525 55 294 0.0 0.0 0.00 0.00 0.00 61 1021.8
20240224055023 55 294 0.0 0.0 0.00 0.00 0.00 59 1021.5
20240224054523 55 294 0.0 0.0 0.00 0.00 0.00 58 1021.4
20240224054023 56 294 0.0 0.0 0.00 0.00 0.00 58 1021.5
20240224053522 56 294 0.0 0.0 0.00 0.00 0.00 57 1021.5
20240224053022 56 294 0.0 0.0 0.00 0.00 0.00 57 1021.4
20240224052521 56 294 0.0 0.0 0.00 0.00 0.00 58 1021.4
20240224052021 56 294 0.0 0.0 0.00 0.00 0.00 58 1021.4
20240224051521 56 294 0.0 0.0 0.00 0.00 0.00 58 1021.4
20240224051021 56 294 0.0 0.0 0.00 0.00 0.00 58 1021.2
20240224050521 56 294 0.0 0.0 0.00 0.00 0.00 58 1021.1
20240224050121 56 294 0.0 0.0 0.00 0.00 0.00 54 1021.0
20240224045520 56 294 0.0 0.0 0.00 0.00 0.00 53 1021.0
20240224045023 57 294 0.0 0.0 0.00 0.00 0.00 53 1021.1
20240224044524 57 294 0.0 0.0 0.00 0.00 0.00 53 1021.2
20240224044019 57 294 0.0 0.0 0.00 0.00 0.00 53 1021.4
20240224043523 57 294 0.0 0.0 0.00 0.00 0.00 52 1021.4
20240224043020 57 294 0.0 0.0 0.00 0.00 0.00 53 1021.3
20240224042519 57 294 0.0 0.0 0.00 0.00 0.00 55 1021.4
20240224042019 57 294 0.0 0.0 0.00 0.00 0.00 53 1021.3
20240224041538 57 294 0.0 0.0 0.00 0.00 0.00 54 1021.4
20240224041019 58 294 0.0 0.0 0.00 0.00 0.00 54 1021.3
20240224040517 58 294 0.0 0.0 0.00 0.00 0.00 53 1021.3
20240224040019 58 294 0.0 0.0 0.00 0.00 0.00 54 1021.3
20240224035517 58 294 0.0 0.0 0.00 0.00 0.00 57 1021.4
20240224035016 58 294 0.0 0.0 0.00 0.00 0.00 60 1021.4
20240224034515 57 294 0.0 0.0 0.00 0.00 0.00 59 1021.2
20240224034017 57 294 0.0 0.0 0.00 0.00 0.00 55 1021.0
20240224033515 57 294 0.0 0.0 0.00 0.00 0.00 58 1021.1
20240224033028 57 294 0.0 0.0 0.00 0.00 0.00 58 1021.0
20240224032513 57 294 0.0 0.0 0.00 0.00 0.00 56 1020.9
20240224032013 57 294 0.0 0.0 0.00 0.00 0.00 56 1020.8
20240224031513 57 294 0.0 0.0 0.00 0.00 0.00 56 1021.0
20240224031012 57 294 0.0 0.0 0.00 0.00 0.00 57 1020.8
20240224030511 57 294 0.0 0.0 0.00 0.00 0.00 55 1020.7
20240224030011 57 294 0.0 0.0 0.00 0.00 0.00 56 1020.6
20240224025511 58 294 0.0 0.0 0.00 0.00 0.00 57 1020.6
20240224025010 58 294 0.0 0.0 0.00 0.00 0.00 54 1020.6
20240224024510 58 294 0.0 0.0 0.00 0.00 0.00 56 1020.6
20240224024009 58 294 0.0 0.0 0.00 0.00 0.00 52 1020.5
20240224023508 59 294 0.0 0.0 0.00 0.00 0.00 52 1020.4
20240224023012 59 294 0.0 0.0 0.00 0.00 0.00 51 1020.1
20240224022508 60 294 0.0 0.0 0.00 0.00 0.00 51 1020.0
20240224022009 60 295 0.0 0.0 0.00 0.00 0.00 51 1020.0
20240224021509 60 295 0.0 0.0 0.00 0.00 0.00 51 1019.9
20240224021009 60 295 0.0 0.0 0.00 0.00 0.00 52 1019.9
20240224020507 60 295 0.0 0.0 0.00 0.00 0.00 51 1020.0
20240224020007 61 295 0.0 0.0 0.00 0.00 0.00 51 1020.0
20240224015507 61 295 0.0 0.0 0.00 0.00 0.00 51 1020.0
20240224015007 61 295 0.0 1.0 0.00 0.00 0.00 49 1019.9
20240224014506 61 295 0.0 1.0 0.00 0.00 0.00 47 1019.7
20240224014006 61 295 0.0 1.0 0.00 0.00 0.00 46 1019.7
20240224013506 61 295 0.0 0.0 0.00 0.00 0.00 46 1019.5
20240224013007 61 295 0.0 1.0 0.00 0.00 0.00 48 1019.4
20240224012510 61 295 0.0 1.0 0.00 0.00 0.00 49 1019.3
20240224012009 62 295 0.0 0.0 0.00 0.00 0.00 48 1019.3
20240224011506 62 295 0.0 0.0 0.00 0.00 0.00 49 1019.2
20240224011005 62 295 0.0 0.0 0.00 0.00 0.00 48 1019.2
20240224010505 62 295 0.0 0.0 0.00 0.00 0.00 48 1019.1
20240224010035 63 295 0.0 0.0 0.00 0.00 0.00 47 1019.1
20240224005504 63 295 0.0 0.0 0.00 0.00 0.00 47 1018.9
20240224005007 63 295 0.0 0.0 0.00 0.00 0.00 45 1018.8
20240224004505 64 295 0.0 0.0 0.00 0.00 0.00 44 1018.8
20240224004006 65 295 0.0 0.0 0.00 0.00 0.00 46 1018.8
20240224003503 65 295 0.0 0.0 0.00 0.00 0.00 45 1018.7
20240224003006 66 295 0.0 0.0 0.00 0.00 0.00 43 1018.5
20240224002504 67 295 0.0 0.0 0.00 0.00 0.00 42 1018.6
20240224002003 68 295 0.0 0.0 0.00 0.00 0.00 41 1018.6
20240224001503 69 295 0.0 0.0 0.00 0.00 0.00 40 1018.7
20240224001002 70 295 0.0 0.0 0.00 0.00 0.00 39 1018.7
20240224000503 70 295 0.0 0.0 0.00 0.00 0.00 37 1018.7
20240224000002 71 295 0.0 0.0 0.00 0.00 0.00 36 1018.7
20240223235502 72 295 0.0 2.0 0.00 0.00 0.00 35 1018.5
20240223235002 72 295 0.0 2.0 0.00 0.00 0.00 32 1018.4
20240223234505 73 295 0.0 2.0 0.00 0.00 0.00 31 1018.4
20240223234002 73 295 0.0 3.0 0.00 0.00 0.00 30 1018.4
20240223233502 73 295 0.0 3.0 0.00 0.00 0.00 30 1018.2
20240223233002 74 295 0.0 3.0 0.00 0.00 0.00 31 1018.2
20240223232501 74 296 0.0 2.0 0.00 0.00 0.00 30 1018.1
20240223232004 74 295 0.0 3.0 0.00 0.00 0.00 30 1018.1
20240223231503 74 295 1.0 3.0 0.00 0.00 0.00 30 1018.1
20240223231001 75 295 0.0 2.0 0.00 0.00 0.00 29 1017.9
20240223230500 75 296 0.0 3.0 0.00 0.00 0.00 29 1017.9
20240223230001 75 296 0.0 3.0 0.00 0.00 0.00 28 1017.8
20240223225500 76 295 0.0 3.0 0.00 0.00 0.00 30 1017.8
20240223225002 76 296 0.0 3.0 0.00 0.00 0.00 28 1017.8
20240223224503 76 296 0.0 2.0 0.00 0.00 0.00 28 1017.7
20240223224100 77 296 0.0 2.0 0.00 0.00 0.00 28 1017.7
20240223223600 77 296 0.0 3.0 0.00 0.00 0.00 31 1017.7
20240223223207 77 297 0.0 4.0 0.00 0.00 0.00 28 1017.7
20240223222559 76 297 0.0 4.0 0.00 0.00 0.00 30 1017.7
20240223222100 76 297 0.0 4.0 0.00 0.00 0.00 28 1017.6
20240223221600 77 297 0.0 2.0 0.00 0.00 0.00 27 1017.6
20240223221058 77 295 0.0 3.0 0.00 0.00 0.00 29 1017.6
20240223220559 77 297 1.0 3.0 0.00 0.00 0.00 27 1017.7
20240223220058 77 296 0.0 3.0 0.00 0.00 0.00 28 1017.7
20240223215558 77 296 0.0 3.0 0.00 0.00 0.00 28 1017.7
20240223215058 77 295 0.0 3.0 0.00 0.00 0.00 27 1017.7
20240223214600 77 295 0.0 5.0 0.00 0.00 0.00 32 1017.7
20240223214058 77 297 0.0 5.0 0.00 0.00 0.00 29 1017.5
20240223213557 77 299 0.0 3.0 0.00 0.00 0.00 28 1017.6
20240223213056 77 297 0.0 1.0 0.00 0.00 0.00 27 1017.7
20240223212556 77 297 0.0 3.0 0.00 0.00 0.00 33 1017.7
20240223212055 76 298 0.0 4.0 0.00 0.00 0.00 29 1017.8
20240223211556 76 299 0.0 4.0 0.00 0.00 0.00 28 1017.7
20240223211055 76 298 0.0 6.0 0.00 0.00 0.00 28 1017.7
20240223210555 76 300 2.0 6.0 0.00 0.00 0.00 29 1017.9
20240223210055 76 300 0.0 4.0 0.00 0.00 0.00 28 1018.0
20240223205555 77 300 0.0 4.0 0.00 0.00 0.00 29 1018.1
20240223205100 76 297 0.0 6.0 0.00 0.00 0.00 29 1017.9
20240223204557 76 297 1.0 6.0 0.00 0.00 0.00 31 1017.9
20240223204056 76 300 0.0 4.0 0.00 0.00 0.00 28 1018.1
20240223203555 76 298 0.0 5.0 0.00 0.00 0.00 30 1018.2
20240223203053 76 300 0.0 8.0 0.00 0.00 0.00 29 1018.3
20240223202553 76 300 1.0 8.0 0.00 0.00 0.00 29 1018.3
20240223202053 75 299 1.0 8.0 0.00 0.00 0.00 31 1018.2
20240223201553 75 300 1.0 8.0 0.00 0.00 0.00 30 1018.2
20240223201051 75 299 1.0 8.0 0.00 0.00 0.00 32 1018.2
20240223200552 75 300 1.0 6.0 0.00 0.00 0.00 30 1018.2
20240223200052 76 300 2.0 7.0 0.00 0.00 0.00 31 1018.3
20240223195551 76 302 0.0 7.0 0.00 0.00 0.00 29 1018.4
20240223195052 76 300 2.0 6.0 0.00 0.00 0.00 28 1018.4
20240223194639 76 297 0.0 6.0 0.00 0.00 0.00 31 1018.4
20240223194049 75 297 0.0 6.0 0.00 0.00 0.00 31 1018.5
20240223193549 75 297 0.0 7.0 0.00 0.00 0.00 31 1018.7
20240223193054 75 297 1.0 7.0 0.00 0.00 0.00 31 1018.9
20240223192548 75 308 1.0 6.0 0.00 0.00 0.00 30 1018.7
20240223192049 75 307 1.0 6.0 0.00 0.00 0.00 31 1018.8
20240223191549 75 307 1.0 6.0 0.00 0.00 0.00 33 1019.0
20240223191047 75 309 0.0 6.0 0.00 0.00 0.00 32 1019.1
20240223190547 74 306 0.0 11.0 0.00 0.00 0.00 34 1019.3
20240223190052 74 308 0.0 8.0 0.00 0.00 0.00 34 1019.2
20240223185546 74 307 2.0 8.0 0.00 0.00 0.00 33 1019.1
20240223185047 74 307 2.0 11.0 0.00 0.00 0.00 33 1019.2
20240223184547 74 307 2.0 11.0 0.00 0.00 0.00 32 1019.4
20240223184046 75 308 1.0 7.0 0.00 0.00 0.00 34 1019.5
20240223183544 74 307 1.0 9.0 0.00 0.00 0.00 32 1019.6
20240223183043 74 309 0.0 9.0 0.00 0.00 0.00 33 1019.7
20240223182543 73 305 0.0 8.0 0.00 0.00 0.00 32 1019.8
20240223182042 74 307 2.0 12.0 0.00 0.00 0.00 32 1019.8
20240223181544 74 307 2.0 12.0 0.00 0.00 0.00 33 1019.9
20240223181040 74 310 1.0 7.0 0.00 0.00 0.00 34 1020.1
20240223180542 73 305 0.0 10.0 0.00 0.00 0.00 35 1020.1
20240223180046 72 306 2.0 10.0 0.00 0.00 0.00 34 1020.1
20240223175541 73 309 3.0 10.0 0.00 0.00 0.00 34 1020.0
20240223175041 73 306 4.0 10.0 0.00 0.00 0.00 34 1020.0
20240223174541 73 304 1.0 6.0 0.00 0.00 0.00 34 1020.1
20240223174040 73 306 1.0 6.0 0.00 0.00 0.00 35 1020.2
20240223173538 73 306 0.0 6.0 0.00 0.00 0.00 36 1020.3
20240223173043 73 307 2.0 6.0 0.00 0.00 0.00 37 1020.4
20240223172538 72 302 0.0 10.0 0.00 0.00 0.00 38 1020.3
20240223172036 72 307 2.0 10.0 0.00 0.00 0.00 36 1020.4
20240223171540 72 307 1.0 6.0 0.00 0.00 0.00 37 1020.3
20240223171035 72 302 0.0 7.0 0.00 0.00 0.00 39 1020.4
20240223170532 71 307 0.0 7.0 0.00 0.00 0.00 38 1020.2
20240223170033 71 304 2.0 8.0 0.00 0.00 0.00 37 1020.3
20240223165530 71 302 1.0 6.0 0.00 0.00 0.00 38 1020.4
20240223165030 71 304 1.0 7.0 0.00 0.00 0.00 38 1020.4
20240223164528 71 305 1.0 8.0 0.00 0.00 0.00 38 1020.4
20240223164027 70 302 0.0 5.0 0.00 0.00 0.00 41 1020.3
20240223163526 70 304 0.0 6.0 0.00 0.00 0.00 40 1020.3
20240223163027 70 303 1.0 6.0 0.00 0.00 0.00 39 1020.2
20240223162525 69 302 1.0 6.0 0.00 0.00 0.00 40 1020.2
20240223162022 69 302 1.0 6.0 0.00 0.00 0.00 41 1020.2
20240223161521 68 303 2.0 7.0 0.00 0.00 0.00 42 1020.2
20240223161020 68 304 2.0 11.0 0.00 0.00 0.00 43 1020.3
20240223160519 67 300 1.0 7.0 0.00 0.00 0.00 43 1020.2
20240223160026 67 299 2.0 7.0 0.00 0.00 0.00 44 1020.1
20240223155517 67 300 1.0 6.0 0.00 0.00 0.00 45 1020.0
20240223155016 66 300 1.0 9.0 0.00 0.00 0.00 46 1020.0
20240223154516 65 300 3.0 9.0 0.00 0.00 0.00 47 1020.1
20240223154015 65 304 2.0 7.0 0.00 0.00 0.00 47 1020.1
20240223153514 65 300 1.0 9.0 0.00 0.00 0.00 47 1019.9
20240223153014 65 301 1.0 9.0 0.00 0.00 0.00 48 1019.9
20240223152513 65 302 1.0 6.0 0.00 0.00 0.00 48 1019.8
20240223152012 64 298 1.0 7.0 0.00 0.00 0.00 50 1019.8
20240223151512 63 299 1.0 8.0 0.00 0.00 0.00 51 1019.7
20240223151012 63 24 0.0 9.0 0.00 0.00 0.00 52 1019.7
20240223150511 62 1 3.0 9.0 0.00 0.00 0.00 51 1019.7
20240223150011 62 335 3.0 10.0 0.00 0.00 0.00 52 1019.8
20240223145511 62 5 0.0 10.0 0.00 0.00 0.00 55 1019.6
20240223145010 62 341 2.0 11.0 0.00 0.00 0.00 54 1019.5
20240223144516 61 343 3.0 11.0 0.00 0.00 0.00 54 1019.5
20240223144009 61 17 3.0 11.0 0.00 0.00 0.00 56 1019.4
20240223143510 60 342 0.0 6.0 0.00 0.00 0.00 59 1019.3
20240223143020 60 331 1.0 6.0 0.00 0.00 0.00 59 1019.2
20240223142506 59 5 2.0 6.0 0.00 0.00 0.00 60 1019.1
20240223142006 58 18 1.0 6.0 0.00 0.00 0.00 61 1019.0
20240223141505 57 6 2.0 6.0 0.00 0.00 0.00 63 1019.0
20240223141004 56 8 0.0 3.0 0.00 0.00 0.00 64 1018.9
20240223140501 56 4 0.0 2.0 0.00 0.00 0.00 65 1018.9
20240223140100 56 4 0.0 2.0 0.00 0.00 0.00 65 1018.8
20240223135559 55 17 0.0 1.0 0.00 0.00 0.00 66 1018.7
20240223135058 0 0.0 0.0 0.00 0.00 0.00 1018.6
20240223134557 0 0.0 0.0 0.00 0.00 0.00 1018.4
20240223134056 0 0.0 0.0 0.00 0.00 0.00 1018.4
20240223133555 0 0.0 0.0 0.00 0.00 0.00 1018.3
20240223133057 0 0.0 0.0 0.00 0.00 0.00 1018.2
20240223132550 0 0.0 0.0 0.00 0.00 0.00 1018.2
20240223132049 0 0.0 0.0 0.00 0.00 0.00 1018.1
20240223131607 0 0.0 0.0 0.00 0.00 0.00 1018.0
20240223131046 0 0.0 0.0 0.00 0.00 0.00 1017.8
20240223130545 0 0.0 0.0 0.00 0.00 0.00 1017.8
20240223130044 0 0.0 0.0 0.00 0.00 0.00 1017.7
20240223125542 0 0.0 0.0 0.00 0.00 0.00 1017.5
20240223125040 0 0.0 0.0 0.00 0.00 0.00 1017.4
20240223124539 0 0.0 0.0 0.00 0.00 0.00 1017.2
20240223124040 0 0.0 0.0 0.00 0.00 0.00 1017.1
20240223123535 0 0.0 0.0 0.00 0.00 0.00 1016.8
20240223123036 0 0.0 0.0 0.00 0.00 0.00 1016.9
20240223122533 0 0.0 0.0 0.00 0.00 0.00 1016.8
20240223122032 0 0.0 0.0 0.00 0.00 0.00 1016.7
20240223121531 0 0.0 0.0 0.00 0.00 0.00 1016.6
20240223121029 0 0.0 0.0 0.00 0.00 0.00 1016.4
20240223120527 0 0.0 0.0 0.00 0.00 0.00 1016.4
20240223120041 0 0.0 0.0 0.00 0.00 0.00 1016.3
20240223115524 0 0.0 0.0 0.00 0.00 0.00 1016.1